Regional Weather Roundup
Issued by NWS

Home | Current Version | Previous Version | Graphics & Text | Print | Product List | Glossary On
Versions: 1 2 3 4 5 6 7 8 9 10 11 12 13 14 15 16 17 18 19 20 21 22 23 24 25 26 27 28 29 30 31 32 33 34 35 36 37 38 39 40 41 42 43 44 45 46 47 48 49 50
000
ASUS43 KBIS 271010
RWRND
NORTH DAKOTA REGIONAL WEATHER ROUNDUP
NATIONAL WEATHER SERVICE EASTERN NORTH DAKOTA/GRAND FORKS ND
500 AM CDT SUN MAY 27 2018

  NOTE: "FAIR" INDICATES FEW OR NO CLOUDS BELOW 12,000 FEET WITH NO
  SIGNIFICANT WEATHER AND/OR OBSTRUCTIONS TO VISIBILITY.

NDZ001>003-009>011-017-271100-
...NORTHWEST NORTH DAKOTA...

CITY           SKY/WX    TMP DP  RH WIND       PRES   REMARKS
WILLISTON      LGT RAIN  63  58  83 NE21G29   29.69F
MINOT          HVY RAIN  64  60  87 NW21G26   29.93R FOG
MINOT AFB      NOT AVBL
$$

NDZ018>021-031>035-040>046-271100-
...SOUTHWEST NORTH DAKOTA...

CITY           SKY/WX    TMP DP  RH WIND       PRES   REMARKS
BISMARCK       MOCLDY    72  57  59 NW36G48   29.82R
DICKINSON      FAIR      64  54  69 NE17G25   29.78F
GARRISON         N/A     62  61  96 N13G23    29.82F
HETTINGER      FAIR      65  53  65 N22G33    29.77R
$$

NDZ004>008-012>016-024-026-027-054-271100-
...NORTHEAST NORTH DAKOTA...

CITY           SKY/WX    TMP DP  RH WIND       PRES   REMARKS
GRAND FORKS    FAIR      60  57  89 SE6       29.72R
GRAND FORKS AF FAIR      56  56 100 SW5       29.74R
DEVILS LAKE    FAIR      65  56  72 SE14      29.76R
$$

NDZ022-023-025-028>030-036>039-047>053-271100-
...SOUTHEAST NORTH DAKOTA...

CITY           SKY/WX    TMP DP  RH WIND       PRES   REMARKS
JAMESTOWN      TSTM      67  57  70 S12       29.76R
FARGO          FAIR      63  51  65 E3        29.73R
WAHPETON       FAIR      68  46  45 E13       29.67F
$$



USA.gov is the U.S. government's official web portal to all federal, state and local government web resources and services.